• In Hungary
  • List of Countries
  • For 7 days
  • Water Temperature
  • Satellite Maps
  • Weather Map
  • News
  • Weather Widgets
  • user-avatar
    Login

    Hourly Weather Verbilkovo

    Today, 15 August, Wednesday

    Time Temperature Precipitation Wind Pressure Humidity
    00:00 +14°C° 0 mm 1 mps 747 mmHg 80%
    01:00 +14°C° 0 mm 1 mps 747 mmHg 81%
    02:00 +14°C° 0 mm 2 mps 747 mmHg 81%
    03:00 +14°C° 0 mm 2 mps 747 mmHg 82%
    04:00 +14°C° 0 mm 2 mps 747 mmHg 83%
    05:00 +15°C° 0 mm 2 mps 746 mmHg 84%
    06:00 +16°C° 0.1 mm 2 mps 746 mmHg 81%
    07:00 +18°C° 0.1 mm 3 mps 746 mmHg 79%
    08:00 +20°C° 0.1 mm 3 mps 745 mmHg 76%
    09:00 +22°C° 0.1 mm 4 mps 745 mmHg 71%
    10:00 +23°C° 0.1 mm 4 mps 744 mmHg 66%
    11:00 +26°C° 0.1 mm 4 mps 744 mmHg 60%
    12:00 +25°C° 1.5 mm 4 mps 744 mmHg 69%
    13:00 +23°C° 1.5 mm 4 mps 743 mmHg 78%
    14:00 +21°C° 1.5 mm 4 mps 743 mmHg 87%
    15:00 +21°C° 0.8 mm 4 mps 743 mmHg 87%
    16:00 +21°C° 0.8 mm 4 mps 743 mmHg 88%
    17:00 +21°C° 0.8 mm 4 mps 743 mmHg 88%
    18:00 +20°C° 0.1 mm 3 mps 743 mmHg 91%
    19:00 +20°C° 0.1 mm 3 mps 743 mmHg 93%
    20:00 +19°C° 0.1 mm 3 mps 743 mmHg 95%
    21:00 +18°C° 0 mm 2 mps 743 mmHg 96%
    22:00 +17°C° 0 mm 2 mps 744 mmHg 97%
    23:00 +17°C° 0 mm 2 mps 744 mmHg 98%

    Tomorrow, 16 August, Thursday

    Time Temperature Precipitation Wind Pressure Humidity
    00:00 +17°C° 0 mm 2 mps 744 mmHg 98%
    01:00 +16°C° 0 mm 2 mps 745 mmHg 97%
    02:00 +16°C° 0 mm 1 mps 745 mmHg 97%
    03:00 +16°C° 0 mm 1 mps 746 mmHg 97%
    04:00 +16°C° 0 mm 1 mps 746 mmHg 97%
    05:00 +16°C° 0 mm 1 mps 746 mmHg 97%
    06:00 +16°C° 0 mm 2 mps 747 mmHg 94%
    07:00 +16°C° 0 mm 2 mps 747 mmHg 91%
    08:00 +16°C° 0 mm 2 mps 748 mmHg 89%
    09:00 +17°C° 0 mm 2 mps 748 mmHg 84%
    10:00 +18°C° 0 mm 2 mps 748 mmHg 79%
    11:00 +19°C° 0 mm 2 mps 748 mmHg 74%
    12:00 +19°C° 0 mm 2 mps 749 mmHg 71%
    13:00 +20°C° 0 mm 2 mps 749 mmHg 67%
    14:00 +20°C° 0 mm 2 mps 749 mmHg 63%
    15:00 +20°C° 0 mm 2 mps 749 mmHg 64%
    16:00 +21°C° 0 mm 2 mps 749 mmHg 64%
    17:00 +21°C° 0 mm 2 mps 749 mmHg 64%
    18:00 +20°C° 0 mm 1 mps 750 mmHg 71%
    19:00 +18°C° 0 mm 1 mps 750 mmHg 78%
    20:00 +15°C° 0 mm 1 mps 750 mmHg 84%
    21:00 +15°C° 0 mm 1 mps 750 mmHg 86%
    22:00 +14°C° 0 mm 1 mps 751 mmHg 87%
    23:00 +13°C° 0 mm 1 mps 751 mmHg 88%

    Day after tomorrow, 17 August, Friday

    Time Temperature Precipitation Wind Pressure Humidity
    00:00 +13°C° 0 mm 1 mps 751 mmHg 89%
    01:00 +13°C° 0 mm 1 mps 752 mmHg 90%
    02:00 +12°C° 0 mm 1 mps 752 mmHg 90%
    03:00 +12°C° 0 mm 1 mps 752 mmHg 90%
    04:00 +12°C° 0 mm 1 mps 752 mmHg 90%
    05:00 +12°C° 0 mm 1 mps 753 mmHg 90%
    06:00 +15°C° 0 mm 1 mps 753 mmHg 82%
    07:00 +18°C° 0 mm 1 mps 753 mmHg 75%
    08:00 +19°C° 0 mm 2 mps 754 mmHg 67%
    09:00 +20°C° 0 mm 2 mps 754 mmHg 62%
    10:00 +23°C° 0 mm 2 mps 754 mmHg 56%
    11:00 +24°C° 0 mm 2 mps 754 mmHg 51%
    12:00 +24°C° 0 mm 2 mps 754 mmHg 49%
    13:00 +25°C° 0 mm 2 mps 753 mmHg 47%
    14:00 +25°C° 0 mm 2 mps 753 mmHg 46%
    15:00 +24°C° 0 mm 2 mps 753 mmHg 49%
    16:00 +24°C° 0 mm 2 mps 753 mmHg 53%
    17:00 +23°C° 0 mm 2 mps 753 mmHg 56%
    18:00 +20°C° 0 mm 2 mps 753 mmHg 63%
    19:00 +18°C° 0 mm 2 mps 753 mmHg 70%
    20:00 +16°C° 0 mm 2 mps 754 mmHg 76%
    21:00 +15°C° 0 mm 2 mps 754 mmHg 79%
    22:00 +14°C° 0 mm 2 mps 754 mmHg 81%
    23:00 +14°C° 0 mm 2 mps 754 mmHg 84%

    18 August, Saturday

    Time Temperature Precipitation Wind Pressure Humidity
    00:00 +13°C° 0 mm 1 mps 754 mmHg 86%
    01:00 +13°C° 0 mm 1 mps 754 mmHg 88%
    02:00 +13°C° 0 mm 1 mps 754 mmHg 91%
    03:00 +13°C° 0 mm 1 mps 754 mmHg 91%
    04:00 +13°C° 0 mm 1 mps 755 mmHg 91%
    05:00 +13°C° 0 mm 1 mps 755 mmHg 91%
    06:00 +15°C° 0 mm 1 mps 755 mmHg 83%
    07:00 +17°C° 0 mm 2 mps 755 mmHg 74%
    08:00 +19°C° 0 mm 2 mps 755 mmHg 66%
    09:00 +21°C° 0 mm 2 mps 755 mmHg 60%
    10:00 +23°C° 0 mm 2 mps 755 mmHg 54%
    11:00 +25°C° 0 mm 2 mps 755 mmHg 49%
    12:00 +26°C° 0 mm 2 mps 754 mmHg 46%
    13:00 +26°C° 0 mm 2 mps 754 mmHg 44%
    14:00 +27°C° 0 mm 2 mps 754 mmHg 42%
    15:00 +26°C° 0 mm 2 mps 753 mmHg 47%
    16:00 +26°C° 0 mm 2 mps 753 mmHg 51%
    17:00 +25°C° 0 mm 1 mps 753 mmHg 55%
    18:00 +23°C° 0 mm 2 mps 753 mmHg 61%
    19:00 +20°C° 0 mm 2 mps 753 mmHg 67%
    20:00 +18°C° 0 mm 2 mps 753 mmHg 73%
    21:00 +17°C° 0 mm 2 mps 753 mmHg 76%
    22:00 +17°C° 0 mm 2 mps 753 mmHg 78%
    23:00 +16°C° 0 mm 2 mps 753 mmHg 81%

    19 August, Sunday

    Time Temperature Precipitation Wind Pressure Humidity
    00:00 +15°C° 0 mm 2 mps 753 mmHg 83%
    01:00 +15°C° 0 mm 2 mps 753 mmHg 84%
    02:00 +14°C° 0 mm 2 mps 753 mmHg 86%
    03:00 +14°C° 0 mm 2 mps 753 mmHg 87%
    04:00 +14°C° 0 mm 2 mps 753 mmHg 87%
    05:00 +14°C° 0 mm 2 mps 753 mmHg 88%
    06:00 +16°C° 0 mm 2 mps 753 mmHg 79%
    07:00 +18°C° 0 mm 3 mps 753 mmHg 70%
    08:00 +20°C° 0 mm 3 mps 752 mmHg 61%
    09:00 +22°C° 0 mm 4 mps 752 mmHg 55%
    10:00 +23°C° 0 mm 4 mps 752 mmHg 48%
    11:00 +25°C° 0 mm 5 mps 752 mmHg 42%
    12:00 +26°C° 0 mm 5 mps 751 mmHg 42%
    13:00 +26°C° 0 mm 5 mps 751 mmHg 42%
    14:00 +26°C° 0 mm 5 mps 750 mmHg 41%
    15:00 +25°C° 0 mm 4 mps 750 mmHg 45%
    16:00 +25°C° 0 mm 4 mps 749 mmHg 49%
    17:00 +24°C° 0 mm 3 mps 749 mmHg 53%
    18:00 +21°C° 0 mm 3 mps 749 mmHg 58%
    19:00 +20°C° 0 mm 3 mps 749 mmHg 62%
    20:00 +18°C° 0 mm 3 mps 748 mmHg 67%
    21:00 +18°C° 0 mm 3 mps 748 mmHg 69%
    22:00 +17°C° 0 mm 3 mps 748 mmHg 72%
    23:00 +17°C° 0 mm 3 mps 748 mmHg 74%

    20 August, Monday

    Time Temperature Precipitation Wind Pressure Humidity
    00:00 +17°C° 0.3 mm 3 mps 748 mmHg 77%
    01:00 +17°C° 0.3 mm 2 mps 748 mmHg 81%
    02:00 +16°C° 0.3 mm 2 mps 748 mmHg 84%
    03:00 +16°C° 0.5 mm 2 mps 748 mmHg 88%
    04:00 +16°C° 0.5 mm 2 mps 748 mmHg 92%
    05:00 +15°C° 0.5 mm 1 mps 747 mmHg 96%
    06:00 +16°C° 0.2 mm 2 mps 748 mmHg 93%
    07:00 +17°C° 0.2 mm 2 mps 748 mmHg 91%
    08:00 +18°C° 0.2 mm 2 mps 748 mmHg 88%
    09:00 +19°C° 0.2 mm 2 mps 748 mmHg 85%
    10:00 +19°C° 0.2 mm 2 mps 748 mmHg 81%
    11:00 +20°C° 0.2 mm 3 mps 748 mmHg 78%
    12:00 +21°C° 0.2 mm 3 mps 748 mmHg 72%
    13:00 +21°C° 0.2 mm 3 mps 748 mmHg 67%
    14:00 +22°C° 0.2 mm 3 mps 748 mmHg 61%
    15:00 +21°C° 0 mm 3 mps 748 mmHg 62%
    16:00 +21°C° 0 mm 3 mps 748 mmHg 63%
    17:00 +20°C° 0 mm 2 mps 748 mmHg 64%
    18:00 +19°C° 0 mm 2 mps 748 mmHg 70%
    19:00 +17°C° 0 mm 2 mps 748 mmHg 76%
    20:00 +15°C° 0 mm 2 mps 748 mmHg 82%
    21:00 +15°C° 0 mm 2 mps 748 mmHg 84%
    22:00 +14°C° 0 mm 2 mps 749 mmHg 85%
    23:00 +14°C° 0 mm 1 mps 749 mmHg 86%
    Show more